This demonstration page uses our WeatherBlox Daily Observations layout. Learn more.

Left ArrowRight Arrow

Hourly Observations for August 9, 2015

Temp ( °F °C ) Dew Point ( °F °C ) Humidity (%) Winds ( mph kmh ) Pressure ( in mb ) Visibility ( mi km ) Precip ( " mm )
12:53 am 00:53 Clear 88 31.1 58 14.4 36 36 SSE 12 19 29.74 1007 10 16 0.00 0.00
1:53 am 01:53 Clear 86 30 58 14.4 39 39 SSE 8 13 29.76 1008 10 16 0.00 0.00
2:53 am 02:53 Clear 86 30 57 13.9 37 37 SE 9 15 29.76 1008 10 16 0.00 0.00
3:53 am 03:53 Clear 85 29.4 57 13.9 39 39 SE 14 22 29.75 1008 10 16 0.00 0.00
4:53 am 04:53 Clear 83 28.3 58 14.4 43 43 SE 12 19 29.75 1008 10 16 0.00 0.00
5:53 am 05:53 Partly Cloudy 82 27.8 59 15 46 46 ESE 8 13 29.78 1008 10 16 0.00 0.00
6:53 am 06:53 Clear 81 27.2 59 15 47 47 SE 12 19 29.78 1008 10 16 0.00 0.00
7:53 am 07:53 Sunny 78 25.6 59 15 52 52 SE 8 13 29.80 1009 10 16 0.00 0.00
8:53 am 08:53 Partly Cloudy 83 28.3 60 15.6 46 46 S 12 19 29.80 1009 10 16 0.00 0.00
9:53 am 09:53 Sunny 88 31.1 60 15.6 39 39 SW 9 15 29.79 1009 10 16 0.00 0.00
10:53 am 10:53 Sunny 92 33.3 59 15 33 33 E 3 6 29.79 1009 10 16 0.00 0.00
11:53 am 11:53 Sunny 95 35 59 15 30 30 SE 3 6 29.80 1009 10 16 0.00 0.00
12:53 pm 12:53 Sunny 98 36.7 58 14.4 26 26 S 6 9 29.79 1009 10 16 0.00 0.00
1:53 pm 13:53 Sunny 101 38.3 57 13.9 23 23 VRB 5 7 29.77 1008 10 16 0.00 0.00
2:53 pm 14:53 Sunny 103 39.4 56 13.3 21 21 VRB 3 6 29.75 1007 10 16 0.00 0.00
3:53 pm 15:53 Sunny 102 38.9 56 13.3 22 22 Calm 29.72 1007 10 16 0.00 0.00
4:53 pm 16:53 Mostly Cloudy 104 40 55 12.8 20 20 Calm 29.70 1006 10 16 0.00 0.00
5:53 pm 17:53 Partly Cloudy with Nearby Thunderstorms 102 38.9 56 13.3 22 22 E 10 17 29.69 1005 10 16 0.00 0.00
6:39 pm 18:39 Mostly Sunny 101 38.3 55 12.8 22 22 NNE 12 19 29.59 1002 10 16 0.00 0.00
6:53 pm 18:53 Mostly Cloudy 96 35.6 59 15 29 29 N 15 24 29.69 1006 10 16 0.00 0.00
7:53 pm 19:53 Sunny 96 35.6 58 14.4 28 28 NNE 6 9 29.70 1006 10 16 0.00 0.00
8:53 pm 20:53 Clear 95 35 58 14.4 29 29 ESE 6 9 29.72 1006 10 16 0.00 0.00
9:36 pm 21:36 Clear with Nearby Thunderstorms 97 36 57 14 27 27 SE 14 22 29.62 1003 10 16 0.00 0.00
9:51 pm 21:51 Clear 95 35 57 14 28 28 SSE 14 22 29.65 1004 10 16 0.00 0.00
9:53 pm 21:53 Clear 95 35 57 13.9 28 28 SSE 14 22 29.73 1007 10 16 0.00 0.00
10:37 pm 22:37 Mostly Cloudy with Nearby Thunderstorms 91 32.8 59 15 34 34 NW 9 15 29.71 1006 10 16 0.00 0.00
10:53 pm 22:53 Cloudy 90 32.2 59 15 35 35 NW 18 30 29.80 1009 10 16 0.00 0.00
11:53 pm 23:53 Clear 89 31.7 59 15 36 36 SE 6 9 29.81 1010 10 16 0.00 0.00

Powered by AerisWeather